TimeEDT,TemperatureF,Dew PointF,Humidity,Sea Level PressureIn,VisibilityMPH,Wind Direction,Wind SpeedMPH,Gust SpeedMPH,PrecipitationIn,Events,Conditions,WindDirDegrees,DateUTC
12:00 AM,57.2,55.4,94,30.00,10.0,Calm,Calm,-,N/A,,Mostly Cloudy,0,2013-04-29 04:00:00
12:17 AM,57.2,57.2,100,30.00,10.0,Calm,Calm,-,N/A,,Overcast,0,2013-04-29 04:17:00
12:53 AM,57.9,55.9,93,29.99,10.0,Calm,Calm,-,N/A,,Overcast,0,2013-04-29 04:53:00
1:14 AM,59.0,55.4,88,30.01,10.0,Calm,Calm,-,N/A,,Overcast,0,2013-04-29 05:14:00
1:41 AM,59.0,57.2,94,30.01,10.0,Calm,Calm,-,N/A,,Overcast,0,2013-04-29 05:41:00
1:50 AM,59.0,55.4,88,30.01,10.0,Calm,Calm,-,N/A,,Overcast,0,2013-04-29 05:50:00
1:53 AM,59.0,55.9,90,30.00,10.0,Calm,Calm,-,N/A,,Overcast,0,2013-04-29 05:53:00
2:09 AM,57.2,55.4,94,30.01,10.0,Calm,Calm,-,N/A,,Overcast,0,2013-04-29 06:09:00
2:53 AM,57.9,55.9,93,29.99,10.0,SSE,3.5,-,N/A,,Overcast,160,2013-04-29 06:53:00
3:53 AM,57.9,55.9,93,29.99,10.0,SSE,3.5,-,N/A,,Overcast,160,2013-04-29 07:53:00
4:53 AM,57.9,55.9,93,29.99,10.0,South,4.6,-,N/A,,Overcast,170,2013-04-29 08:53:00
5:45 AM,59.0,55.4,88,30.00,6.0,SSE,3.5,-,N/A,,Overcast,160,2013-04-29 09:45:00
5:53 AM,57.9,55.9,93,29.99,6.0,Calm,Calm,-,N/A,,Overcast,0,2013-04-29 09:53:00
6:53 AM,57.9,55.9,93,30.01,6.0,Calm,Calm,-,N/A,,Overcast,0,2013-04-29 10:53:00
7:53 AM,59.0,55.9,90,30.02,6.0,Calm,Calm,-,N/A,,Overcast,0,2013-04-29 11:53:00
8:29 AM,59.0,55.4,88,30.04,6.0,SE,3.5,-,N/A,,Mostly Cloudy,140,2013-04-29 12:29:00
8:50 AM,59.0,55.4,88,30.04,6.0,SSE,5.8,-,N/A,,Mostly Cloudy,160,2013-04-29 12:50:00
8:53 AM,59.0,55.9,90,30.03,6.0,South,4.6,-,N/A,,Mostly Cloudy,180,2013-04-29 12:53:00
9:53 AM,62.1,57.0,84,30.03,10.0,SSE,4.6,-,N/A,,Mostly Cloudy,160,2013-04-29 13:53:00
10:53 AM,64.0,54.0,70,30.03,10.0,SSE,3.5,-,N/A,,Mostly Cloudy,150,2013-04-29 14:53:00
11:28 AM,64.4,55.4,73,30.04,10.0,SE,4.6,-,N/A,,Scattered Clouds,140,2013-04-29 15:28:00
11:53 AM,66.9,54.0,63,30.03,10.0,Calm,Calm,-,N/A,,Scattered Clouds,0,2013-04-29 15:53:00
12:53 PM,68.0,53.1,59,30.02,10.0,Calm,Calm,-,N/A,,Mostly Cloudy,0,2013-04-29 16:53:00
1:53 PM,70.0,52.0,53,30.00,10.0,Calm,Calm,-,N/A,,Mostly Cloudy,0,2013-04-29 17:53:00
2:53 PM,71.1,51.1,49,29.98,10.0,Calm,Calm,-,N/A,,Mostly Cloudy,0,2013-04-29 18:53:00
3:53 PM,72.0,51.1,48,29.96,10.0,Calm,Calm,-,N/A,,Mostly Cloudy,0,2013-04-29 19:53:00
4:53 PM,72.0,52.0,49,29.95,10.0,Calm,Calm,-,N/A,,Mostly Cloudy,0,2013-04-29 20:53:00
5:53 PM,72.0,52.0,49,29.93,10.0,SSW,4.6,-,N/A,,Scattered Clouds,200,2013-04-29 21:53:00
6:53 PM,72.0,51.1,48,29.93,10.0,South,3.5,-,N/A,,Partly Cloudy,190,2013-04-29 22:53:00
7:53 PM,71.1,52.0,51,29.93,10.0,South,3.5,-,N/A,,Partly Cloudy,170,2013-04-29 23:53:00
8:53 PM,66.9,54.0,63,29.94,10.0,Calm,Calm,-,N/A,,Partly Cloudy,0,2013-04-30 00:53:00
9:53 PM,61.0,55.9,83,29.97,10.0,Calm,Calm,-,N/A,,Partly Cloudy,0,2013-04-30 01:53:00
10:53 PM,60.1,55.0,83,29.99,10.0,Calm,Calm,-,N/A,,Clear,0,2013-04-30 02:53:00
11:53 PM,57.9,55.0,90,29.97,10.0,Calm,Calm,-,N/A,,Clear,0,2013-04-30 03:53:00